[[{"header":{"parameterUnit":"m.s-1","parameterCategory":1,"la1":30.2991,"la2":30.254,"lo1":-89.0895,"lo2":-89.0444,"dx":0.0017,"dy":0.0017,"nx":28,"ny":28,"refTime":"2022-12-16T15:00:00:Z","depth":0,"parameterNumber":2,"parameterNumberName":"U-component_of_WINDS"},"data":[0,0,0,0,0,0,0,0,0,0,0,0,0,0,0,0,0,0,0,0,0,0,0,0,0,0,0,0,0,0,0,0,0,0,0,0,0,0,0,0,0,0,0,0,0,0,0,0,0,0,0,0,0,0,0,0,0,0,0.2843,0.2843,0,0.281,0.2809,0.2809,0.2818,0.2819,0.282,0.282,0.2784,0.2783,0.2781,0,0,0,0,0,0,0,0,0,0,0,0,0,0.2914,0.2913,0.2843,0.2843,0.2842,0.281,0.2809,0.2809,0.2818,0.2819,0.282,0.2821,0.2785,0.2783,0.2781,0,0,0,0,0,0,0,0,0,0,0,0,0,0.2882,0.2913,0.2843,0.2843,0.2843,0.281,0.2809,0.2809,0.2818,0.2819,0.282,0.2821,0.2785,0.2783,0.2781,0.2745,0,0,0.2773,0.2772,0,0,0,0,0,0,0,0,0.2884,0.288,0.2844,0.2843,0.2843,0.2819,0.2821,0.2787,0.2818,0.2827,0.282,0.2822,0.2795,0.2792,0.2783,0.2744,0.2742,0.2773,0.2772,0.2771,0.277,0,0,0,0,0,0,0,0.2886,0.2881,0.283,0.2843,0.2842,0.2845,0.2841,0.2815,0.2806,0.2827,0.2827,0.2823,0.2795,0.2785,0.2782,0.2741,0.2773,0.2771,0.277,0.2769,0.2672,0.2671,0,0,0,0,0,0,0.2889,0.2883,0.2831,0.2829,0.2866,0.2842,0.2839,0.2826,0.2806,0.2804,0.2822,0.2824,0.2789,0.2785,0.2781,0.2739,0.2771,0.2768,0.2767,0.2673,0.2672,0.2671,0,0,0,0,0,0,0.2891,0.2884,0.2832,0.2856,0.285,0.284,0.2826,0.2824,0.2815,0.2803,0.2801,0.2814,0.279,0.2785,0.2754,0.2738,0.2767,0.2765,0.2674,0.2673,0.2671,0.2653,0,0,0,0,0,0,0.2893,0.2885,0.2871,0.2856,0.2848,0.2806,0.2824,0.2823,0.2811,0.2813,0.2795,0.2793,0.279,0.2758,0.2752,0.2735,0.2763,0.2676,0.2674,0.2672,0.2655,0.2651,0.2648,0,0,0,0,0,0.2895,0.2867,0.2871,0.2864,0.2831,0.2805,0.2801,0.2799,0.281,0.2796,0.2788,0.2794,0.2741,0.2755,0.2748,0.273,0.2677,0.2674,0.2672,0.2657,0.2652,0.2648,0,0,0,0,0,0,0.288,0.2865,0.2869,0.2835,0.2821,0.2807,0.2789,0.2793,0.2776,0.2778,0.2775,0.2771,0.274,0.2732,0.2748,0.2695,0.271,0.2706,0.2701,0.2696,0.2693,0.2695,0.2761,0,0,0,0,0,0.2873,0.2853,0.2841,0.2812,0.2805,0.2799,0.2787,0.2787,0.2772,0.2766,0.2756,0.2742,0.2722,0.2709,0.269,0.2655,0.2651,0.2639,0.2635,0.2632,0.2628,0.2609,0.2604,0.2662,0.2662,0.2662,0,0,0.2857,0.2847,0.2834,0.2809,0.2798,0.2778,0.2794,0.2771,0.2756,0.2763,0.2734,0.2726,0.271,0.2677,0.2662,0.2669,0.2612,0.2629,0.2626,0.2624,0.2606,0.2601,0.2596,0.266,0.2661,0.2661,0,0,0.2818,0.2809,0.2784,0.2773,0.2758,0.2754,0.2748,0.2733,0.2729,0.27,0.2705,0.2687,0.2653,0.2641,0.2631,0.259,0.2594,0.2584,0.2563,0.2545,0.254,0.2536,0.2521,0.2516,0.258,0.258,0.258,0,0.2801,0.2771,0.277,0.2748,0.2737,0.2743,0.2718,0.2708,0.2687,0.2679,0.2688,0.2646,0.2635,0.26,0.259,0.2582,0.2575,0.2585,0.2541,0.2537,0.2533,0.2519,0.2513,0.2579,0.2579,0.2579,0.2579,0,0.275,0.2729,0.2711,0.2691,0.2678,0.2654,0.265,0.2637,0.2639,0.2634,0.2605,0.2593,0.2572,0.2564,0.2564,0.2529,0.2534,0.2542,0.2557,0.2526,0.2513,0.2508,0.2577,0.2578,0.2578,0.2578,0,0,0.2699,0.2681,0.2674,0.2665,0.265,0.2633,0.261,0.2591,0.2579,0.2565,0.2545,0.2517,0.2525,0.2513,0.2513,0.2497,0.2465,0.2507,0.2507,0.2499,0.2426,0.2419,0.2413,0.2469,0.2468,0.2467,0.2427,0,0.2658,0.2618,0.2618,0.2581,0.2561,0.2569,0.2549,0.2537,0.2532,0.2515,0.251,0.249,0.2502,0.2495,0.2479,0.2472,0.245,0.2476,0.245,0.2449,0.2453,0.2406,0.2399,0.2362,0.2422,0.2421,0.242,0,0.2605,0.259,0.2551,0.2539,0.2531,0.2513,0.2496,0.248,0.2467,0.2464,0.2452,0.2455,0.2431,0.2448,0.2416,0.2433,0.2423,0.2418,0.2417,0.2413,0.2432,0.2401,0.235,0.2344,0.2412,0.2413,0.2413,0,0.2572,0.2542,0.2515,0.2507,0.2493,0.248,0.2473,0.2461,0.245,0.2435,0.2427,0.241,0.2399,0.2386,0.2383,0.2396,0.2351,0.2368,0.2348,0.2348,0.2337,0.2338,0.2283,0.2332,0.2332,0.2332,0.2332,0,0.2526,0.2502,0.25,0.2483,0.2456,0.2457,0.243,0.2424,0.2414,0.2396,0.2402,0.2385,0.2383,0.2366,0.2364,0.2338,0.2334,0.2331,0.233,0.233,0.233,0.2322,0.2325,0.2331,0.2331,0.2331,0.2332,0,0.2483,0.2481,0.2452,0.2441,0.2438,0.2418,0.2409,0.2393,0.239,0.2367,0.2362,0.2357,0.2337,0.2334,0.231,0.2309,0.2277,0.228,0.2282,0.2282,0.2262,0.2264,0.22,0.2191,0.2247,0.2246,0.2246,0,0.2454,0.2435,0.2423,0.2412,0.2405,0.2387,0.2376,0.2376,0.2364,0.2349,0.2335,0.2316,0.23,0.2268,0.2262,0.2244,0.2246,0.2225,0.2243,0.2244,0.2245,0.2246,0.2244,0.2221,0.222,0.222,0.2219,0,0.2402,0.2402,0.2386,0.237,0.2356,0.2343,0.2331,0.2322,0.2321,0.2307,0.2287,0.2276,0.2252,0.2233,0.2216,0.2209,0.2214,0.2214,0.2209,0.2207,0.2209,0.2207,0.2271,0.2215,0.2216,0.2216,0.2216,0.2216,0.2364,0.2349,0.2338,0.232,0.2311,0.23,0.2285,0.228,0.2264,0.2245,0.2247,0.2225,0.2214,0.2191,0.2183,0.2166,0.2173,0.2165,0.2163,0.2161,0.2159,0.2213,0.2163,0.2163,0.2163,0.2163,0.2164,0,0.2312,0.2306,0.229,0.2273,0.2259,0.2267,0.2254,0.2242,0.2223,0.2212,0.2197,0.2175,0.2157,0.215,0.2132,0.212,0.2122,0.2116,0.2116,0.2114,0.2154,0.216,0.2114,0.2114,0.2114,0.2114,0.2114,0.2114,0.2283,0.2257,0.2256,0.2226,0.2221,0.22,0.2192,0.2182,0.2173,0.2148,0.2134,0.213,0.2121,0.2103,0.2087,0.2085,0.2078,0.2071,0.207,0.2107,0.2111,0.2116,0.2122,0.2069,0.2069,0.2032,0.2032,0.2031]},{"header":{"parameterUnit":"m.s-1","parameterCategory":1,"la1":30.2991,"la2":30.254,"lo1":-89.0895,"lo2":-89.0444,"dx":0.0017,"dy":0.0017,"nx":28,"ny":28,"refTime":"2022-12-16T15:00:00:Z","depth":0,"parameterNumber":3,"parameterNumberName":"V-component_of_WINDS"},"data":[0,0,0,0,0,0,0,0,0,0,0,0,0,0,0,0,0,0,0,0,0,0,0,0,0,0,0,0,0,0,0,0,0,0,0,0,0,0,0,0,0,0,0,0,0,0,0,0,0,0,0,0,0,0,0,0,0,0,-3.7554,-3.7555,0,-3.7651,-3.7652,-3.7653,-3.7599,-3.7596,-3.7593,-3.7591,-3.769,-3.7695,-3.77,0,0,0,0,0,0,0,0,0,0,0,0,0,-3.7321,-3.7325,-3.7553,-3.7555,-3.7556,-3.765,-3.7652,-3.7653,-3.7599,-3.7596,-3.7593,-3.759,-3.7688,-3.7694,-3.7701,0,0,0,0,0,0,0,0,0,0,0,0,0,-3.742,-3.7327,-3.7553,-3.754,-3.754,-3.765,-3.7652,-3.7653,-3.76,-3.7596,-3.7592,-3.7588,-3.7686,-3.7694,-3.7701,-3.783,0,0,-3.7725,-3.7728,0,0,0,0,0,0,0,0,-3.7415,-3.7429,-3.7541,-3.7541,-3.7541,-3.7608,-3.7606,-3.7712,-3.7601,-3.7577,-3.7591,-3.7586,-3.7666,-3.7675,-3.7702,-3.7834,-3.7838,-3.7726,-3.773,-3.7734,-3.7736,0,0,0,0,0,0,0,-3.7408,-3.7424,-3.7592,-3.7543,-3.7543,-3.753,-3.7539,-3.7626,-3.7643,-3.7579,-3.7575,-3.7588,-3.7665,-3.7695,-3.7704,-3.784,-3.7726,-3.7732,-3.7737,-3.774,-3.8081,-3.8086,0,0,0,0,0,0,-3.7402,-3.7419,-3.7589,-3.7595,-3.7467,-3.7537,-3.7548,-3.7591,-3.7642,-3.7646,-3.7591,-3.7585,-3.7684,-3.7695,-3.7708,-3.7861,-3.7734,-3.7741,-3.7745,-3.8077,-3.8082,-3.8087,0,0,0,0,0,0,-3.7397,-3.7418,-3.7585,-3.7506,-3.7526,-3.7545,-3.7594,-3.7595,-3.7624,-3.7651,-3.7654,-3.7618,-3.7681,-3.7697,-3.78,-3.7864,-3.7744,-3.7751,-3.8072,-3.8079,-3.8085,-3.8169,0,0,0,0,0,0,-3.7391,-3.7416,-3.7465,-3.7508,-3.7531,-3.7676,-3.7598,-3.76,-3.7638,-3.7631,-3.7677,-3.7681,-3.7679,-3.7788,-3.7807,-3.7872,-3.7757,-3.8066,-3.8075,-3.8083,-3.816,-3.8177,-3.8192,0,0,0,0,0,-3.7383,-3.7485,-3.7468,-3.7489,-3.7592,-3.768,-3.7693,-3.7689,-3.7643,-3.7693,-3.771,-3.7679,-3.7853,-3.7799,-3.782,-3.7888,-3.8062,-3.8072,-3.8082,-3.8153,-3.8174,-3.8192,0,0,0,0,0,0,-3.745,-3.749,-3.7472,-3.7591,-3.7632,-3.767,-3.7732,-3.7711,-3.7766,-3.7757,-3.7749,-3.776,-3.7867,-3.7888,-3.7827,-3.8015,-3.7951,-3.7965,-3.7998,-3.8018,-3.8033,-3.8026,-3.7764,0,0,0,0,0,-3.7478,-3.7546,-3.7578,-3.768,-3.7701,-3.7714,-3.7751,-3.7745,-3.7787,-3.7804,-3.7828,-3.7871,-3.7935,-3.7977,-3.8038,-3.8163,-3.8172,-3.822,-3.8236,-3.8248,-3.8261,-3.8329,-3.8351,-3.812,-3.812,-3.812,0,0,-3.7538,-3.7569,-3.7612,-3.7694,-3.7725,-3.7795,-3.7729,-3.7805,-3.7857,-3.7816,-3.7915,-3.7934,-3.798,-3.8095,-3.8147,-3.8115,-3.8327,-3.8261,-3.8271,-3.8277,-3.8342,-3.8364,-3.8383,-3.8127,-3.8126,-3.8125,0,0,-3.7683,-3.7713,-3.7802,-3.7834,-3.7882,-3.789,-3.7911,-3.7952,-3.7964,-3.8063,-3.8033,-3.8094,-3.8205,-3.8239,-3.8271,-3.8429,-3.8403,-3.8449,-3.8532,-3.8598,-3.8616,-3.8632,-3.8689,-3.8709,-3.8461,-3.8462,-3.8462,0,-3.7752,-3.7856,-3.785,-3.7929,-3.7966,-3.7931,-3.8021,-3.8053,-3.8118,-3.8144,-3.8108,-3.8246,-3.8275,-3.8397,-3.8436,-3.8463,-3.8487,-3.8444,-3.8614,-3.863,-3.8645,-3.8699,-3.872,-3.8467,-3.8466,-3.8466,-3.8465,0,-3.7938,-3.8011,-3.8077,-3.8141,-3.8185,-3.8269,-3.8275,-3.832,-3.831,-3.8321,-3.8422,-3.8455,-3.8522,-3.855,-3.8541,-3.8672,-3.8651,-3.8615,-3.855,-3.8673,-3.8723,-3.8744,-3.8474,-3.8472,-3.8471,-3.847,0,0,-3.8129,-3.8188,-3.8213,-3.8241,-3.8291,-3.8348,-3.843,-3.8495,-3.8534,-3.858,-3.8649,-3.8743,-3.871,-3.8747,-3.874,-3.8798,-3.8922,-3.8755,-3.8756,-3.8785,-3.9068,-3.9096,-3.912,-3.8905,-3.8909,-3.8912,-3.9064,0,-3.8278,-3.8422,-3.8418,-3.8552,-3.8619,-3.8587,-3.8659,-3.8697,-3.871,-3.8769,-3.8782,-3.8849,-3.88,-3.8822,-3.8878,-3.8895,-3.8978,-3.8884,-3.8969,-3.8972,-3.8959,-3.9146,-3.9175,-3.9318,-3.9084,-3.9088,-3.909,0,-3.8471,-3.8524,-3.8664,-3.8705,-3.8733,-3.8797,-3.8857,-3.8913,-3.8956,-3.8961,-3.9002,-3.8986,-3.9069,-3.9002,-3.9117,-3.9052,-3.9087,-3.91,-3.9106,-3.9114,-3.9039,-3.916,-3.9363,-3.9385,-3.9121,-3.9118,-3.9116,0,-3.8597,-3.8703,-3.8801,-3.8826,-3.8875,-3.8921,-3.8944,-3.8983,-3.9022,-3.9074,-3.91,-3.916,-3.9194,-3.9241,-3.9242,-3.9193,-3.9358,-3.9291,-3.9365,-3.9365,-3.9402,-3.94,-3.9614,-3.9423,-3.9423,-3.9423,-3.9422,0,-3.8764,-3.8851,-3.8858,-3.8918,-3.9015,-3.9009,-3.9106,-3.9124,-3.9159,-3.9222,-3.9197,-3.9257,-3.9255,-3.9316,-3.9317,-3.9412,-3.9427,-3.9433,-3.9433,-3.9436,-3.9436,-3.9459,-3.945,-3.9428,-3.9427,-3.9426,-3.9425,0,-3.8921,-3.8929,-3.9033,-3.9071,-3.9083,-3.9153,-3.9185,-3.9243,-3.9252,-3.9333,-3.9351,-3.9367,-3.9437,-3.9443,-3.9524,-3.9525,-3.964,-3.9629,-3.9626,-3.9624,-3.9698,-3.9692,-3.9936,-3.9968,-3.9756,-3.9758,-3.9759,0,-3.9027,-3.9094,-3.9139,-3.9179,-3.9205,-3.9271,-3.9311,-3.9307,-3.935,-3.9404,-3.9455,-3.9523,-3.9577,-3.969,-3.9709,-3.9771,-3.9761,-3.9842,-3.977,-3.9772,-3.9763,-3.9759,-3.9766,-3.9857,-3.9859,-3.9861,-3.9863,0,-3.9215,-3.9216,-3.9275,-3.9335,-3.9384,-3.9431,-3.9475,-3.951,-3.9512,-3.9561,-3.9633,-3.9675,-3.9758,-3.9825,-3.9886,-3.9909,-3.9887,-3.9885,-3.9906,-3.991,-3.9906,-3.991,-3.9665,-3.988,-3.9878,-3.9877,-3.9876,-3.9875,-3.9351,-3.9409,-3.9449,-3.9516,-3.9548,-3.959,-3.9646,-3.9663,-3.9723,-3.979,-3.9784,-3.9864,-3.9904,-3.9984,-4.0011,-4.0073,-4.0046,-4.0075,-4.0083,-4.0091,-4.0099,-3.9896,-4.0084,-4.0084,-4.0083,-4.0083,-4.0082,0,-3.9538,-3.9563,-3.9624,-3.9686,-3.9739,-3.9713,-3.976,-3.9806,-3.9876,-3.9916,-3.9969,-4.0052,-4.0117,-4.0141,-4.0205,-4.025,-4.0241,-4.0267,-4.0264,-4.0269,-4.0119,-4.0095,-4.0272,-4.0272,-4.0272,-4.0272,-4.0272,-4.0272,-3.9642,-3.9738,-3.9744,-3.9856,-3.988,-3.9958,-3.9987,-4.0025,-4.0057,-4.015,-4.0205,-4.022,-4.0253,-4.0319,-4.0378,-4.0383,-4.0408,-4.0438,-4.044,-4.0299,-4.028,-4.0262,-4.0239,-4.0444,-4.0444,-4.0585,-4.0586,-4.0587]}]]